Madison, MN

6:27 PM CST on February 24, 2018 (GMT -0600)
Madison-Lac Qui Parle County

Weather History for KDXX - April, 2014

Change the Weather History Date:

Sunday, April 13, 2014

  Actual Average (KAQP) Record (KAQP)
Temperature  
Mean Temperature 40 °F -  
Max Temperature 50 °F 51 °F 87 °F (2003)
Min Temperature 30 °F 30 °F 17 °F (2008)
Degree Days  
Heating Degree Days 25    
Moisture  
Dew Point 30 °F    
Average Humidity 72    
Maximum Humidity 87    
Minimum Humidity 60    
Precipitation  
Precipitation 0.00 in - - ()
Sea Level Pressure  
Sea Level Pressure 29.97 in    
Wind  
Wind Speed 21 mph (North)    
Max Wind Speed 34 mph    
Max Gust Speed 43 mph    
Visibility 10 miles    
Events      
Averages and records for this station are not official NWS values.
T = Trace of Precipitation, MM = Missing Value Source: NWS Daily Summary

Daily Weather History Graph

Daily Weather History Graph

Search for Another Location

Airport or City:

Trip Planner

Search our weather history database for the weather conditions in past years. The results will help you decide how hot, cold, wet, or windy it might be!

Date:

Astronomy

Apr. 13, 2014 Rise Set
Actual Time 6:43 AM CDT 8:07 PM CDT
Civil Twilight 6:13 AM CDT 8:38 PM CDT
Nautical Twilight 5:36 AM CDT 9:15 PM CDT
Astronomical Twilight 4:57 AM CDT 9:54 PM CDT
Moon 6:43 PM CDT (4/13) 5:47 AM CDT (4/13)
Length of Visible Light 14h 25m
Length of Day
13h 24m
Waxing Gibbous, 97% of the Moon is Illuminated
Apr 13
Waxing Gibbous
Apr 15
Full
Apr 22
Last Quarter
Apr 29
New
May 6
First Quarter

Hourly Weather History & Observations

Time (CDT) Temp. Windchill Dew Point Humidity Pressure Visibility Wind Dir Wind Speed Gust Speed Precip Events Conditions
12:13 AM 48.2 °F - 44.6 °F 87% 29.76 in 10.0 mi NNW 9.2 mph - N/A   Scattered Clouds
12:34 AM 50.0 °F - 44.6 °F 82% 29.79 in 10.0 mi NNE 8.1 mph - N/A   Mostly Cloudy
12:54 AM 48.2 °F - 44.6 °F 87% 29.81 in 10.0 mi NNE 8.1 mph - N/A   Mostly Cloudy
1:13 AM 50.0 °F - 44.6 °F 82% 29.81 in 10.0 mi North 13.8 mph - N/A   Mostly Cloudy
1:34 AM 48.2 °F - 44.6 °F 87% 29.82 in 10.0 mi North 21.9 mph 26.5 mph N/A   Scattered Clouds
1:54 AM 48.2 °F - 42.8 °F 82% 29.83 in 10.0 mi North 17.3 mph 26.5 mph N/A   Mostly Cloudy
2:13 AM 46.4 °F 39.5 °F 42.8 °F 87% 29.84 in 7.0 mi North 17.3 mph 25.3 mph N/A   Mostly Cloudy
2:34 AM 46.4 °F 39.5 °F 41.0 °F 81% 29.85 in 7.0 mi North 17.3 mph - N/A   Overcast
2:54 AM 46.4 °F 39.0 °F 39.2 °F 76% 29.85 in 10.0 mi North 19.6 mph 25.3 mph N/A   Overcast
3:13 AM 46.4 °F 39.5 °F 39.2 °F 76% 29.86 in 10.0 mi North 17.3 mph 24.2 mph N/A   Overcast
3:33 AM 44.6 °F 36.1 °F 39.2 °F 81% 29.87 in 10.0 mi North 21.9 mph 25.3 mph N/A   Overcast
3:54 AM 44.6 °F 35.3 °F 37.4 °F 76% 29.89 in 10.0 mi NNW 26.5 mph 32.2 mph N/A   Overcast
4:14 AM 42.8 °F 33.5 °F 37.4 °F 81% 29.90 in 10.0 mi North 23.0 mph 27.6 mph N/A   Overcast
4:33 AM 42.8 °F 35.1 °F 37.4 °F 81% 29.91 in 10.0 mi North 16.1 mph 26.5 mph N/A   Overcast
4:54 AM 42.8 °F 33.8 °F 37.4 °F 81% 29.91 in 10.0 mi North 21.9 mph - N/A   Overcast
5:14 AM 42.8 °F 34.3 °F 37.4 °F 81% 29.91 in 10.0 mi North 19.6 mph 24.2 mph N/A   Overcast
5:34 AM 41.0 °F 30.9 °F 37.4 °F 87% 29.91 in 10.0 mi North 24.2 mph 27.6 mph N/A   Overcast
5:54 AM 39.2 °F 28.7 °F 35.6 °F 87% 29.92 in 10.0 mi North 23.0 mph 29.9 mph N/A   Overcast
6:13 AM 39.2 °F 28.5 °F 35.6 °F 87% 29.92 in 10.0 mi North 24.2 mph 32.2 mph N/A   Overcast
6:34 AM 37.4 °F 25.2 °F 32.0 °F 81% 29.93 in 10.0 mi North 28.8 mph 34.5 mph N/A   Overcast
6:54 AM 37.4 °F 26.1 °F 30.2 °F 75% 29.94 in 10.0 mi North 24.2 mph 33.4 mph N/A   Overcast
7:13 AM 37.4 °F 26.1 °F 30.2 °F 75% 29.96 in 10.0 mi NNW 24.2 mph 34.5 mph N/A   Overcast
7:34 AM 37.4 °F 26.1 °F 30.2 °F 75% 29.96 in 10.0 mi North 24.2 mph 29.9 mph N/A   Overcast
8:13 AM 35.6 °F 23.7 °F 30.2 °F 81% 29.98 in 10.0 mi North 24.2 mph 33.4 mph N/A   Overcast
8:34 AM 35.6 °F 23.7 °F 28.4 °F 75% 29.98 in 10.0 mi North 24.2 mph 29.9 mph N/A   Overcast
8:54 AM 35.6 °F 23.4 °F 28.4 °F 75% 29.99 in 10.0 mi NNW 25.3 mph 29.9 mph N/A   Overcast
9:13 AM 35.6 °F 24.2 °F 30.2 °F 81% 29.98 in 10.0 mi North 21.9 mph 26.5 mph N/A   Overcast
9:34 AM 35.6 °F 24.2 °F 28.4 °F 75% 29.98 in 10.0 mi North 21.9 mph 27.6 mph N/A   Overcast
9:54 AM 35.6 °F 24.0 °F 28.4 °F 75% 30.00 in 10.0 mi North 23.0 mph 31.1 mph N/A   Overcast
10:34 AM 35.6 °F 23.4 °F 28.4 °F 75% 29.98 in 10.0 mi North 25.3 mph 33.4 mph N/A   Mostly Cloudy
10:54 AM 35.6 °F 23.4 °F 26.6 °F 70% 29.99 in 10.0 mi North 25.3 mph 33.4 mph N/A   Mostly Cloudy
11:13 AM 35.6 °F 23.0 °F 26.6 °F 70% 29.98 in 10.0 mi North 27.6 mph 35.7 mph N/A   Mostly Cloudy
11:34 AM 35.6 °F 23.0 °F 26.6 °F 70% 29.99 in 10.0 mi North 27.6 mph 35.7 mph N/A   Overcast
11:54 AM 37.4 °F 25.6 °F 26.6 °F 65% 29.99 in 10.0 mi North 26.5 mph 38.0 mph N/A   Overcast
12:13 PM 37.4 °F 25.2 °F 26.6 °F 65% 29.99 in 10.0 mi North 28.8 mph 40.3 mph N/A   Overcast
12:34 PM 37.4 °F 25.4 °F 26.6 °F 65% 29.99 in 10.0 mi North 27.6 mph 34.5 mph N/A   Mostly Cloudy
12:54 PM 37.4 °F 25.2 °F 26.6 °F 65% 30.00 in 10.0 mi North 28.8 mph 38.0 mph N/A   Mostly Cloudy
1:13 PM 37.4 °F 24.8 °F 26.6 °F 65% 29.99 in 10.0 mi North 31.1 mph 39.1 mph N/A   Scattered Clouds
1:34 PM 37.4 °F 25.6 °F 26.6 °F 65% 29.99 in 10.0 mi North 26.5 mph 35.7 mph N/A   Mostly Cloudy
1:54 PM 37.4 °F 25.4 °F 26.6 °F 65% 30.01 in 10.0 mi North 27.6 mph 38.0 mph N/A   Scattered Clouds
2:13 PM 37.4 °F 25.0 °F 26.6 °F 65% 30.02 in 10.0 mi North 29.9 mph 36.8 mph N/A   Scattered Clouds
2:34 PM 37.4 °F 25.4 °F 26.6 °F 65% 30.01 in 10.0 mi North 27.6 mph 38.0 mph N/A   Scattered Clouds
2:54 PM 37.4 °F 24.6 °F 26.6 °F 65% 30.01 in 10.0 mi North 32.2 mph 39.1 mph N/A   Clear
3:13 PM 37.4 °F 24.8 °F 26.6 °F 65% 30.00 in 10.0 mi North 31.1 mph 38.0 mph N/A   Clear
3:34 PM 39.2 °F 27.2 °F 26.6 °F 61% 30.00 in 10.0 mi North 31.1 mph 38.0 mph N/A   Clear
3:54 PM 37.4 °F 24.8 °F 26.6 °F 65% 29.99 in 10.0 mi North 31.1 mph 40.3 mph N/A   Scattered Clouds
4:13 PM 37.4 °F 24.2 °F 26.6 °F 65% 29.99 in 10.0 mi North 34.5 mph 39.1 mph N/A   Scattered Clouds
4:34 PM 37.4 °F 24.6 °F 24.8 °F 60% 30.00 in 10.0 mi North 32.2 mph 40.3 mph N/A   Clear
4:54 PM 37.4 °F 25.2 °F 26.6 °F 65% 30.00 in 10.0 mi North 28.8 mph 38.0 mph N/A   Scattered Clouds
5:13 PM 35.6 °F 22.3 °F 24.8 °F 65% 30.00 in 10.0 mi North 31.1 mph 42.6 mph N/A   Clear
5:34 PM 37.4 °F 24.4 °F 24.8 °F 60% 30.00 in 10.0 mi North 33.4 mph 39.1 mph N/A   Clear
5:54 PM 37.4 °F 24.4 °F 24.8 °F 60% 30.01 in 10.0 mi North 33.4 mph 41.4 mph N/A   Clear
6:13 PM 35.6 °F 22.7 °F 24.8 °F 65% 30.01 in 10.0 mi North 28.8 mph 39.1 mph N/A   Clear
6:34 PM 35.6 °F 22.7 °F 24.8 °F 65% 30.02 in 10.0 mi North 28.8 mph 36.8 mph N/A   Clear
7:13 PM 33.8 °F 19.4 °F 24.8 °F 70% 30.02 in 10.0 mi North 33.4 mph 42.6 mph N/A   Clear
7:34 PM 33.8 °F 20.1 °F 24.8 °F 70% 30.02 in 10.0 mi North 29.9 mph 36.8 mph N/A   Clear
7:54 PM 33.8 °F 19.2 °F 24.8 °F 70% 30.02 in 10.0 mi North 34.5 mph 40.3 mph N/A   Clear
8:13 PM 33.8 °F 20.5 °F 23.0 °F 65% 30.03 in 10.0 mi North 27.6 mph 40.3 mph N/A   Clear
8:34 PM 32.0 °F 18.1 °F 23.0 °F 69% 30.04 in 10.0 mi North 27.6 mph 35.7 mph N/A   Scattered Clouds
8:54 PM 32.0 °F 19.2 °F 23.0 °F 69% 30.05 in 10.0 mi North 23.0 mph 39.1 mph N/A   Scattered Clouds
9:14 PM 32.0 °F 18.4 °F 23.0 °F 69% 30.06 in 10.0 mi North 26.5 mph 32.2 mph N/A   Scattered Clouds
9:34 PM 32.0 °F 18.4 °F 21.2 °F 64% 30.07 in 10.0 mi North 26.5 mph 34.5 mph N/A   Clear
9:53 PM 32.0 °F 18.4 °F 21.2 °F 64% 30.08 in 10.0 mi North 26.5 mph 36.8 mph N/A   Clear
10:14 PM 32.0 °F 18.6 °F 21.2 °F 64% 30.10 in 10.0 mi North 25.3 mph 34.5 mph N/A   Clear
10:34 PM 30.2 °F 16.8 °F 21.2 °F 69% 30.10 in 10.0 mi North 23.0 mph 35.7 mph N/A   Clear
10:53 PM 30.2 °F 15.9 °F 19.4 °F 64% 30.10 in 10.0 mi North 26.5 mph 33.4 mph N/A   Clear
11:14 PM 30.2 °F 15.9 °F 19.4 °F 64% 30.11 in 10.0 mi North 26.5 mph 33.4 mph N/A   Clear
11:33 PM 30.2 °F 15.9 °F 19.4 °F 64% 30.12 in 10.0 mi North 26.5 mph 36.8 mph N/A   Clear
11:54 PM 30.2 °F 15.9 °F 19.4 °F 64% 30.12 in 10.0 mi North 26.5 mph 35.7 mph N/A   Clear